TimeCDT,TemperatureF,Dew PointF,Humidity,Sea Level PressureIn,VisibilityMPH,Wind Direction,Wind SpeedMPH,Gust SpeedMPH,PrecipitationIn,Events,Conditions,WindDirDegrees,DateUTC
12:54 AM,54.0,45.0,72,29.99,10.0,SSW,3.5,-,N/A,,Clear,210,2013-05-11 05:54:00
1:54 AM,53.1,44.1,71,29.98,10.0,SW,4.6,-,N/A,,Clear,230,2013-05-11 06:54:00
2:54 AM,51.1,44.1,77,29.97,10.0,SW,5.8,-,N/A,,Clear,230,2013-05-11 07:54:00
3:54 AM,52.0,44.1,74,29.99,10.0,WNW,16.1,24.2,N/A,,Mostly Cloudy,300,2013-05-11 08:54:00
4:54 AM,54.0,43.0,66,30.02,10.0,NW,17.3,24.2,N/A,,Partly Cloudy,320,2013-05-11 09:54:00
5:54 AM,52.0,37.0,57,30.05,10.0,NNW,12.7,23.0,N/A,,Scattered Clouds,330,2013-05-11 10:54:00
6:54 AM,51.1,28.9,43,30.09,10.0,NNW,18.4,25.3,N/A,,Partly Cloudy,340,2013-05-11 11:54:00
7:54 AM,51.1,33.1,50,30.11,10.0,NW,15.0,-,N/A,,Partly Cloudy,320,2013-05-11 12:54:00
8:54 AM,53.6,30.2,41,30.13,10.0,NNW,13.8,-,N/A,,Partly Cloudy,340,2013-05-11 13:54:00
9:54 AM,55.0,27.0,34,30.14,10.0,North,23.0,35.7,N/A,,Partly Cloudy,360,2013-05-11 14:54:00
10:54 AM,55.9,28.9,36,30.15,10.0,NNW,19.6,33.4,N/A,,Partly Cloudy,340,2013-05-11 15:54:00
11:54 AM,55.9,27.0,33,30.16,10.0,NW,20.7,39.1,N/A,,Partly Cloudy,320,2013-05-11 16:54:00
12:54 PM,57.9,28.0,32,30.15,10.0,NNW,24.2,43.7,N/A,,Partly Cloudy,340,2013-05-11 17:54:00
1:54 PM,57.0,26.1,30,30.17,10.0,NNW,26.5,38.0,N/A,,Partly Cloudy,340,2013-05-11 18:54:00
2:54 PM,57.9,26.1,30,30.17,10.0,NNW,20.7,34.5,N/A,,Partly Cloudy,330,2013-05-11 19:54:00
3:54 PM,57.9,21.9,25,30.17,10.0,North,19.6,32.2,N/A,,Partly Cloudy,350,2013-05-11 20:54:00
4:54 PM,57.0,21.0,25,30.17,10.0,NNW,17.3,35.7,N/A,,Partly Cloudy,330,2013-05-11 21:54:00
5:54 PM,57.0,19.9,24,30.18,10.0,NW,24.2,32.2,N/A,,Partly Cloudy,320,2013-05-11 22:54:00
6:54 PM,55.9,19.0,24,30.18,10.0,NNW,17.3,25.3,N/A,,Clear,330,2013-05-11 23:54:00
7:54 PM,54.0,18.0,24,30.19,10.0,NNW,12.7,-,N/A,,Clear,340,2013-05-12 00:54:00
8:54 PM,52.0,18.0,26,30.20,10.0,NNW,10.4,-,N/A,,Partly Cloudy,340,2013-05-12 01:54:00
9:54 PM,50.0,18.0,28,30.21,10.0,NNW,8.1,-,N/A,,Clear,330,2013-05-12 02:54:00
10:54 PM,48.0,19.9,33,30.22,10.0,NW,5.8,-,N/A,,Clear,320,2013-05-12 03:54:00
11:54 PM,45.0,23.0,42,30.22,10.0,NW,5.8,-,N/A,,Partly Cloudy,310,2013-05-12 04:54:00